GW2822 Weather Reports


time (UTC)temp
C
wind
direction
speed
KPH
gust
KPH
rain 1hr
cm
rain 24hr
cm
rain mn
cm
humidity
%
barometer
mb
20260509131058 21 92 1.6 4.8 0.00 0.05 0.05 97 1008.6
20260509130510 21 125 0.0 4.8 0.00 0.05 0.05 97 1008.6
20260509130004 21 125 0.0 4.8 0.00 0.05 0.05 97 1008.4
20260509125516 21 122 0.0 4.8 0.00 0.05 0.05 97 1008.3
20260509125029 21 28 0.0 6.4 0.00 0.05 0.05 97 1008.4
20260509124541 21 28 1.6 8.0 0.00 0.05 0.05 97 1008.5
20260509124056 21 27 3.2 8.0 0.00 0.05 0.05 97 1008.5
20260509123510 21 20 3.2 8.0 0.00 0.05 0.05 97 1008.4
20260509123026 21 40 1.6 8.0 0.00 0.05 0.05 97 1008.2
20260509122536 21 340 1.6 6.4 0.00 0.05 0.05 97 1008.2
20260509122049 21 19 3.2 8.0 0.00 0.05 0.05 97 1008.1
20260509121505 21 59 3.2 9.7 0.00 0.05 0.05 97 1008.1
20260509121020 21 350 3.2 9.7 0.00 0.05 0.05 97 1008.1
20260509120531 21 52 4.8 8.0 0.00 0.05 0.05 97 1008.2
20260509120036 21 60 3.2 9.7 0.00 0.05 0.05 96 1008.4
20260509115542 21 5 4.8 12.9 0.00 0.05 0.05 96 1008.6
20260509115055 21 344 4.8 12.9 0.00 0.05 0.05 96 1008.8
20260509114515 21 18 3.2 8.0 0.00 0.05 0.05 96 1008.9
20260509114028 21 44 1.6 6.4 0.00 0.05 0.05 96 1008.9
20260509113543 21 51 3.2 6.4 0.00 0.05 0.05 96 1008.9
20260509113057 21 40 3.2 6.4 0.00 0.05 0.05 96 1009.0
20260509112515 21 27 3.2 6.4 0.00 0.05 0.05 96 1009.1
20260509112026 21 63 1.6 9.7 0.00 0.05 0.05 96 1009.1
20260509111542 21 45 4.8 14.5 0.00 0.05 0.05 96 1009.1
20260509111053 21 24 6.4 14.5 0.00 0.05 0.05 96 1009.1
20260509110509 21 13 3.2 12.9 0.00 0.05 0.05 96 1009.3
20260509110006 21 5 4.8 9.7 0.03 0.05 0.05 96 1009.4
20260509105515 21 30 4.8 12.9 0.03 0.05 0.05 96 1009.2
20260509105034 21 13 4.8 12.9 0.03 0.05 0.05 96 1009.1
20260509104543 21 22 3.2 6.4 0.03 0.05 0.05 96 1009.0
20260509104057 21 23 3.2 4.8 0.03 0.05 0.05 96 1008.9
20260509104002 21 24 1.6 4.8 0.03 0.05 0.05 96 1008.9
20260509103517 21 56 0.0 3.2 0.03 0.05 0.05 96 1008.8
20260509103027 21 56 0.0 1.6 0.03 0.05 0.05 96 1008.7
20260509102546 21 56 0.0 1.6 0.03 0.05 0.05 96 1008.6
20260509102053 21 56 0.0 3.2 0.03 0.05 0.05 96 1008.5
20260509101514 21 56 0.0 3.2 0.03 0.05 0.05 96 1008.3
20260509101024 21 55 0.0 1.6 0.03 0.05 0.05 96 1008.2
20260509100535 21 55 0.0 4.8 0.03 0.05 0.05 96 1008.2
20260509100027 21 55 0.0 4.8 0.03 0.03 0.03 96 1008.1
20260509095541 21 56 0.0 3.2 0.03 0.03 0.03 96 1008.1
20260509095054 21 56 0.0 3.2 0.03 0.03 0.03 96 1008.0
20260509094511 21 56 0.0 4.8 0.03 0.03 0.03 96 1008.0
20260509094023 21 56 1.6 4.8 0.03 0.03 0.03 96 1007.8
20260509093538 21 57 0.0 4.8 0.03 0.03 0.03 96 1007.7
20260509093055 21 57 0.0 4.8 0.03 0.03 0.03 96 1007.8
20260509092512 21 57 1.6 3.2 0.03 0.03 0.03 96 1007.9
20260509092027 21 57 1.6 3.2 0.03 0.03 0.03 96 1007.7
20260509091537 21 57 0.0 4.8 0.03 0.03 0.03 96 1007.8
20260509091054 21 57 1.6 4.8 0.03 0.03 0.03 96 1007.8
20260509090510 21 61 1.6 6.4 0.03 0.03 0.03 96 1007.9
20260509090007 21 57 0.0 6.4 0.00 0.00 0.00 96 1007.9
20260509085520 21 82 1.6 3.2 0.00 0.00 0.00 96 1007.9
20260509085035 21 83 1.6 3.2 0.00 0.00 0.00 95 1007.9
20260509084548 21 108 0.0 1.6 0.00 0.00 0.00 95 1007.8
20260509084009 21 108 0.0 3.2 0.00 0.00 0.00 95 1007.9
20260509083525 21 107 1.6 3.2 0.00 0.00 0.00 95 1007.8
20260509083037 21 107 0.0 1.6 0.00 0.00 0.00 95 1008.0
20260509082553 21 108 0.0 3.2 0.00 0.00 0.00 95 1008.0
20260509082009 21 108 0.0 3.2 0.00 0.00 0.00 95 1008.2
20260509081526 21 108 0.0 4.8 0.00 0.00 0.00 95 1008.1
20260509081039 21 108 0.0 4.8 0.00 0.00 0.00 95 1008.1
20260509080555 21 108 0.0 3.2 0.00 0.00 0.00 95 1008.1
20260509080052 21 108 1.6 3.2 0.00 0.00 0.00 95 1008.0
20260509075505 21 116 0.0 3.2 0.00 0.00 0.00 95 1008.0
20260509075022 21 150 0.0 8.0 0.00 0.00 0.00 95 1008.0
20260509074529 21 150 1.6 8.0 0.00 0.00 0.00 95 1007.7
20260509074049 21 150 1.6 4.8 0.00 0.00 0.00 95 1007.7
20260509073558 21 148 1.6 4.8 0.00 0.00 0.00 95 1007.9
20260509073501 21 148 1.6 4.8 0.00 0.00 0.00 95 1007.8
20260509073025 21 148 0.0 3.2 0.00 0.00 0.00 95 1007.8
20260509072527 21 148 0.0 8.0 0.00 0.00 0.00 95 1007.8
20260509072043 21 148 0.0 9.7 0.00 0.00 0.00 95 1007.7
20260509071552 21 148 1.6 9.7 0.00 0.00 0.00 95 1007.7
20260509071011 21 166 3.2 8.0 0.00 0.00 0.00 95 1007.9
20260509070523 21 169 1.6 6.4 0.00 0.00 0.00 95 1007.8
20260509070017 21 211 0.0 6.4 0.00 0.00 0.00 95 1008.0
20260509065528 21 152 3.2 8.0 0.00 0.00 0.00 95 1008.2
20260509065047 21 187 0.0 6.4 0.00 0.00 0.00 95 1008.1
20260509064600 21 201 0.0 9.7 0.00 0.00 0.00 95 1008.1
20260509064507 21 202 0.0 9.7 0.00 0.00 0.00 95 1008.1
20260509064018 21 187 3.2 9.7 0.00 0.00 0.00 94 1008.1
20260509063532 21 202 1.6 8.0 0.00 0.00 0.00 94 1008.0
20260509063041 21 211 3.2 8.0 0.00 0.00 0.00 94 1008.1
20260509062503 21 219 3.2 12.9 0.00 0.00 0.00 94 1008.1
20260509062012 21 171 3.2 14.5 0.00 0.00 0.00 94 1007.9
20260509061531 21 187 3.2 14.5 0.00 0.00 0.00 94 1007.7
20260509061040 21 170 4.8 11.3 0.00 0.00 0.00 94 1007.5
20260509060557 21 161 4.8 11.3 0.00 0.00 0.00 94 1007.7
20260509060057 21 184 4.8 12.9 0.00 0.00 0.00 94 1008.0
20260509055559 21 196 4.8 14.5 0.00 0.00 0.00 94 1008.2
20260509055017 21 215 6.4 14.5 0.00 0.00 0.00 94 1008.2
20260509054524 21 187 3.2 11.3 0.00 0.00 0.00 94 1008.3
20260509054043 21 213 3.2 11.3 0.00 0.00 0.00 94 1008.2
20260509053553 21 158 3.2 9.7 0.00 0.00 0.00 94 1008.2
20260509053014 21 192 4.8 12.9 0.00 0.00 0.00 94 1008.2
20260509052519 21 150 3.2 12.9 0.00 0.00 0.00 94 1008.3
20260509052032 21 187 3.2 9.7 0.00 0.00 0.00 93 1008.4
20260509051542 21 196 3.2 6.4 0.00 0.00 0.00 93 1008.5
20260509051058 21 196 3.2 8.0 0.00 0.00 0.00 93 1008.5
20260509050512 21 169 1.6 6.4 0.00 0.00 0.00 93 1008.2
20260509050012 21 171 0.0 9.7 0.00 0.00 0.00 93 1008.2
20260509045518 21 173 4.8 8.0 0.00 0.00 0.00 93 1008.2
20260509045032 21 167 1.6 11.3 0.00 0.00 0.00 93 1008.2
20260509044545 21 169 3.2 11.3 0.00 0.00 0.00 93 1008.2
20260509044057 21 165 4.8 11.3 0.00 0.00 0.00 93 1008.0
20260509043512 21 148 3.2 11.3 0.00 0.00 0.00 93 1007.8
20260509043034 21 146 1.6 6.4 0.00 0.00 0.00 92 1007.7
20260509042537 21 121 1.6 4.8 0.00 0.00 0.00 92 1007.5
20260509042054 21 130 1.6 4.8 0.00 0.00 0.00 92 1007.5
20260509041513 21 109 1.6 4.8 0.00 0.00 0.00 92 1007.5
20260509041021 21 98 1.6 4.8 0.00 0.00 0.00 92 1007.7
20260509040535 21 103 1.6 6.4 0.00 0.00 0.00 92 1007.7
20260509040029 21 112 1.6 6.4 0.00 0.00 0.00 92 1007.8
20260509035546 21 150 0.0 3.2 0.00 0.00 0.00 92 1007.8
20260509035058 21 150 0.0 3.2 0.00 0.00 0.00 92 1008.0
20260509034516 21 150 0.0 3.2 0.00 0.00 0.00 92 1008.0
20260509034031 21 149 0.0 3.2 0.00 0.00 0.00 92 1008.0
20260509033546 21 149 0.0 6.4 0.00 0.00 0.00 92 1008.1
20260509033059 21 149 1.6 6.4 0.00 0.00 0.00 92 1008.1
20260509033009 21 149 1.6 6.4 0.00 0.00 0.00 91 1008.1
20260509032522 21 152 1.6 8.0 0.00 0.00 0.00 91 1008.0
20260509032040 21 137 1.6 6.4 0.00 0.00 0.00 91 1008.0
20260509031547 21 137 1.6 4.8 0.00 0.00 0.00 91 1007.9
20260509031003 21 131 0.0 3.2 0.00 0.00 0.00 90 1007.8
20260509030513 21 131 0.0 3.2 0.00 0.00 0.00 89 1007.9
20260509030012 21 128 0.0 3.2 0.00 0.00 0.00 89 1007.8
20260509025521 21 128 0.0 1.6 0.00 0.00 0.00 89 1007.7
20260509025039 21 128 0.0 1.6 0.00 0.00 0.00 88 1007.7
20260509024549 21 128 0.0 1.6 0.00 0.00 0.00 88 1007.7
20260509024005 21 128 0.0 1.6 0.00 0.00 0.00 87 1007.6
20260509023526 21 128 0.0 0.0 0.00 0.00 0.00 87 1007.5
20260509023033 21 128 0.0 1.6 0.00 0.00 0.00 87 1007.4
20260509022549 21 128 0.0 1.6 0.00 0.00 0.00 87 1007.4
20260509022003 22 128 0.0 0.0 0.00 0.00 0.00 86 1007.5
20260509021523 22 128 0.0 0.0 0.00 0.00 0.00 85 1007.3
20260509021032 22 128 0.0 0.0 0.00 0.00 0.00 85 1007.3
20260509020547 22 128 0.0 0.0 0.00 0.00 0.00 85 1007.2
20260509020045 22 128 0.0 0.0 0.00 0.00 0.00 85 1007.1
20260509015556 22 128 0.0 0.0 0.00 0.00 0.00 84 1007.1
20260509015014 22 128 0.0 0.0 0.00 0.00 0.00 84 1006.9
20260509014529 22 128 0.0 0.0 0.00 0.00 0.00 84 1006.7
20260509014045 22 128 0.0 1.6 0.00 0.00 0.00 84 1006.7
20260509013559 22 128 0.0 3.2 0.00 0.00 0.00 84 1006.7
20260509013502 22 128 0.0 3.2 0.00 0.00 0.00 84 1006.6
20260509013019 23 128 0.0 4.8 0.00 0.00 0.00 84 1006.5
20260509012533 23 128 0.0 4.8 0.00 0.00 0.00 84 1006.4
20260509012047 23 128 0.0 6.4 0.00 0.00 0.00 84 1006.4
20260509011606 23 117 3.2 6.4 0.00 0.00 0.00 84 1006.4
20260509011017 23 126 1.6 8.0 0.00 0.00 0.00 84 1006.4
20260509010526 23 157 1.6 8.0 0.00 0.00 0.00 83 1006.5
20260509010033 23 124 1.6 8.0 0.00 0.00 0.00 83 1006.5
20260509005538 23 140 3.2 8.0 0.00 0.00 0.00 83 1006.6
20260509005053 23 117 1.6 8.0 0.00 0.00 0.00 83 1006.6
20260509004511 23 111 0.0 8.0 0.00 0.00 0.00 83 1006.6
20260509004021 23 154 0.0 4.8 0.00 0.00 0.00 83 1006.5
20260509003539 23 134 0.0 8.0 0.00 0.00 0.00 82 1006.6
20260509003049 23 131 3.2 11.3 0.00 0.00 0.00 82 1006.6
20260509002507 23 130 4.8 12.9 0.00 0.00 0.00 82 1006.5
20260509002016 23 138 4.8 12.9 0.00 0.00 0.00 82 1006.6
20260509001531 23 135 3.2 11.3 0.00 0.00 0.00 82 1006.5
20260509001038 23 150 4.8 11.3 0.00 0.00 0.00 82 1006.7
20260509000554 23 187 6.4 11.3 0.00 0.00 0.00 82 1006.7
20260509000046 24 174 0.0 11.3 0.00 0.00 0.00 82 1006.6
20260508235503 24 159 4.8 11.3 0.00 0.00 0.00 82 1006.6
20260508235014 24 144 3.2 11.3 0.00 0.00 0.00 82 1006.6
20260508234528 24 162 3.2 12.9 0.00 0.00 0.00 82 1006.7
20260508234040 24 140 6.4 14.5 0.00 0.00 0.00 82 1006.6
20260508233554 24 134 4.8 12.9 0.00 0.00 0.00 82 1006.6
20260508233009 24 132 3.2 9.7 0.00 0.00 0.00 82 1006.6
20260508232524 24 182 1.6 9.7 0.00 0.00 0.00 82 1006.6
20260508232034 24 188 3.2 12.9 0.00 0.00 0.00 81 1006.7
20260508231553 24 181 4.8 12.9 0.00 0.00 0.00 81 1006.7
20260508231100 24 150 6.4 12.9 0.00 0.00 0.00 81 1006.8
20260508231004 24 171 8.0 12.9 0.00 0.00 0.00 81 1006.7
20260508230520 24 186 6.4 12.9 0.00 0.00 0.00 82 1006.7
20260508230019 24 150 6.4 12.9 0.00 0.00 0.00 81 1006.7
20260508225524 24 140 4.8 12.9 0.00 0.00 0.00 81 1006.7
20260508225041 24 184 6.4 12.9 0.00 0.00 0.00 80 1006.8
20260508224552 24 172 6.4 11.3 0.00 0.00 0.00 80 1006.8
20260508224006 25 160 3.2 12.9 0.00 0.00 0.00 80 1006.7
20260508223518 25 160 4.8 16.1 0.00 0.00 0.00 80 1006.6
20260508223041 25 142 8.0 16.1 0.00 0.00 0.00 80 1006.6
20260508222543 25 131 4.8 14.5 0.00 0.00 0.00 80 1006.6
20260508222104 25 153 9.7 14.5 0.00 0.00 0.00 80 1006.7
20260508222002 25 161 9.7 14.5 0.00 0.00 0.00 80 1006.7
20260508221512 25 171 8.0 12.9 0.00 0.00 0.00 80 1006.7
20260508221032 25 202 6.4 17.7 0.00 0.00 0.00 80 1006.8
20260508220541 25 163 9.7 17.7 0.00 0.00 0.00 80 1006.8
20260508220038 25 144 6.4 14.5 0.00 0.00 0.00 79 1006.8
20260508215554 25 136 8.0 14.5 0.00 0.00 0.00 80 1006.9
20260508215004 25 157 8.0 14.5 0.00 0.00 0.00 79 1006.8
20260508214517 25 175 8.0 14.5 0.00 0.00 0.00 78 1007.0
20260508214030 25 146 6.4 11.3 0.00 0.00 0.00 78 1007.1
20260508213545 25 132 4.8 11.3 0.00 0.00 0.00 78 1007.0
20260508213056 25 219 4.8 12.9 0.00 0.00 0.00 79 1007.1
20260508212513 25 172 8.0 14.5 0.00 0.00 0.00 77 1007.1
20260508212028 25 180 8.0 14.5 0.00 0.00 0.00 77 1007.2
20260508211542 26 130 6.4 12.9 0.00 0.00 0.00 77 1007.2
20260508211051 26 108 4.8 16.1 0.00 0.00 0.00 76 1007.2
20260508210508 26 148 9.7 16.1 0.00 0.00 0.00 76 1007.3
20260508210002 26 147 6.4 16.1 0.00 0.00 0.00 77 1007.5
20260508205511 26 169 3.2 16.1 0.00 0.00 0.00 77 1007.5
20260508205029 26 167 8.0 16.1 0.00 0.00 0.00 77 1007.5
20260508204542 26 5 3.2 14.5 0.00 0.00 0.00 79 1007.6
20260508204049 25 107 8.0 14.5 0.00 0.00 0.00 78 1007.6
20260508203503 25 92 8.0 12.9 0.00 0.00 0.00 77 1007.7
20260508203018 25 161 3.2 12.9 0.00 0.00 0.00 80 1007.8
20260508202528 25 163 8.0 12.9 0.00 0.00 0.00 79 1007.9
20260508202044 25 90 1.6 12.9 0.00 0.00 0.00 79 1008.0
20260508201554 25 67 6.4 12.9 0.00 0.00 0.00 78 1007.9
20260508201009 25 200 4.8 11.3 0.00 0.00 0.00 79 1008.1
20260508200520 25 176 6.4 12.9 0.00 0.00 0.00 79 1008.1
20260508200014 25 173 3.2 20.9 0.00 0.00 0.00 79 1008.1
20260508195525 25 128 3.2 20.9 0.00 0.00 0.00 79 1008.2
20260508195041 25 145 4.8 14.5 0.00 0.00 0.00 79 1008.3
20260508194609 25 139 6.4 12.9 0.00 0.00 0.00 78 1008.3
20260508194011 25 172 4.8 12.9 0.00 0.00 0.00 80 1008.3
20260508193526 25 155 4.8 16.1 0.00 0.00 0.00 79 1008.3
20260508193046 25 163 11.3 16.1 0.00 0.00 0.00 78 1008.4
20260508192552 25 182 6.4 16.1 0.00 0.00 0.00 79 1008.4
20260508192006 25 140 11.3 16.1 0.00 0.00 0.00 77 1008.5
20260508191520 25 165 6.4 14.5 0.00 0.00 0.00 77 1008.5
20260508191031 25 176 0.0 14.5 0.00 0.00 0.00 79 1008.5
20260508190545 25 148 8.0 14.5 0.00 0.00 0.00 77 1008.5
20260508190037 25 209 8.0 14.5 0.00 0.00 0.00 78 1008.6
20260508185551 25 148 6.4 14.5 0.00 0.00 0.00 79 1008.7
20260508185005 25 163 3.2 14.5 0.00 0.00 0.00 80 1008.8
20260508184519 25 153 4.8 14.5 0.00 0.00 0.00 82 1008.9
20260508184029 24 145 1.6 16.1 0.00 0.00 0.00 82 1009.0
20260508183543 23 179 6.4 16.1 0.00 0.00 0.00 82 1009.0
20260508183054 23 80 1.6 11.3 0.00 0.00 0.00 82 1008.9
20260508182510 23 116 4.8 11.3 0.00 0.00 0.00 81 1009.3
20260508182024 23 111 1.6 11.3 0.00 0.00 0.00 81 1009.4
20260508181551 23 134 3.2 11.3 0.00 0.00 0.00 81 1009.5
20260508181049 23 180 3.2 11.3 0.00 0.00 0.00 81 1009.6
20260508180507 23 144 3.2 11.3 0.00 0.00 0.00 81 1009.6
20260508180059 23 130 4.8 11.3 0.00 0.00 0.00 81 1009.7
20260508175514 23 175 0.0 12.9 0.00 0.00 0.00 81 1009.9
20260508175030 23 150 4.8 12.9 0.00 0.00 0.00 80 1010.0
20260508174539 23 205 4.8 12.9 0.00 0.00 0.00 80 1009.9
20260508174055 23 144 3.2 11.3 0.00 0.00 0.00 80 1009.8
20260508173511 23 178 1.6 9.7 0.00 0.00 0.00 81 1009.8
20260508173028 23 193 4.8 9.7 0.00 0.00 0.00 81 1009.8
20260508172539 23 221 3.2 8.0 0.00 0.00 0.00 81 1009.8
20260508172053 23 198 3.2 9.7 0.00 0.00 0.00 82 1009.9
20260508171505 23 164 3.2 9.7 0.00 0.00 0.00 82 1010.0
20260508171018 22 165 1.6 6.4 0.00 0.00 0.00 82 1010.0
20260508170529 22 140 1.6 6.4 0.00 0.00 0.00 83 1010.1
20260508170023 22 133 3.2 6.4 0.00 0.00 0.00 84 1010.2
20260508165532 22 77 0.0 4.8 0.00 0.00 0.00 83 1010.2
20260508165046 21 271 1.6 4.8 0.00 0.00 0.00 84 1010.2
20260508164559 21 190 0.0 3.2 0.00 0.00 0.00 85 1010.3
20260508164505 21 189 0.0 3.2 0.00 0.00 0.00 84 1010.3
20260508164015 21 283 0.0 1.6 0.00 0.00 0.00 85 1010.3
20260508163528 20 293 0.0 4.8 0.00 0.00 0.00 85 1010.5
20260508163046 20 294 0.0 4.8 0.00 0.00 0.00 86 1010.5
20260508162555 20 227 0.0 8.0 0.00 0.00 0.00 86 1010.6
20260508162006 20 222 4.8 8.0 0.00 0.00 0.00 87 1010.7
20260508161517 20 222 0.0 8.0 0.00 0.00 0.00 87 1010.9
20260508161027 19 184 0.0 6.4 0.00 0.00 0.00 87 1011.0
20260508160543 18 188 0.0 6.4 0.00 0.00 0.00 87 1011.0
20260508160057 18 196 1.6 6.4 0.00 0.00 0.00 88 1011.2
20260508155545 18 277 1.6 4.8 0.00 0.00 0.00 88 1011.4
20260508155059 18 73 0.0 4.8 0.00 0.00 0.00 88 1011.4
20260508155002 18 73 0.0 3.2 0.00 0.00 0.00 88 1011.4
20260508154516 17 131 0.0 3.2 0.00 0.00 0.00 88 1011.6
20260508154030 17 160 0.0 3.2 0.00 0.00 0.00 89 1011.8
20260508153543 17 119 0.0 3.2 0.00 0.00 0.00 89 1011.8
20260508153053 17 83 0.0 4.8 0.00 0.00 0.00 89 1011.8
20260508152512 17 82 1.6 4.8 0.00 0.00 0.00 89 1011.8
20260508152021 17 96 0.0 4.8 0.00 0.00 0.00 88 1011.8
20260508151533 16 111 0.0 3.2 0.00 0.00 0.00 88 1011.9
20260508151043 16 160 0.0 3.2 0.00 0.00 0.00 88 1011.9
20260508150556 16 160 0.0 3.2 0.00 0.00 0.00 88 1012.0
20260508150047 16 150 0.0 3.2 0.00 0.00 0.00 88 1012.0
20260508145505 16 150 0.0 3.2 0.00 0.00 0.00 88 1011.9
20260508145020 16 44 0.0 3.2 0.00 0.00 0.00 88 1012.0
20260508144530 16 44 0.0 3.2 0.00 0.00 0.00 88 1012.1
20260508144042 16 44 0.0 3.2 0.00 0.00 0.00 87 1012.3
20260508143557 16 44 0.0 4.8 0.00 0.00 0.00 88 1012.3
20260508143021 16 42 0.0 6.4 0.00 0.00 0.00 87 1012.2
20260508142525 16 47 1.6 6.4 0.00 0.00 0.00 88 1012.1
20260508142042 16 32 3.2 6.4 0.00 0.00 0.00 88 1012.0
20260508141556 16 360 0.0 4.8 0.00 0.00 0.00 88 1012.0
20260508141006 16 360 0.0 6.4 0.00 0.00 0.00 88 1012.1
20260508140518 16 360 0.0 4.8 0.00 0.00 0.00 88 1012.1
20260508140018 16 355 0.0 4.8 0.00 0.00 0.00 88 1011.9
20260508135523 16 355 0.0 6.4 0.00 0.00 0.00 88 1011.8
20260508135038 15 338 1.6 6.4 0.00 0.00 0.00 88 1011.9
20260508134546 15 24 0.0 3.2 0.00 0.00 0.00 88 1011.9
20260508134006 15 24 0.0 4.8 0.00 0.00 0.00 88 1012.0
20260508133518 15 24 1.6 4.8 0.00 0.00 0.00 88 1011.9
20260508133040 15 32 0.0 4.8 0.00 0.00 0.00 88 1011.9
20260508132544 15 34 1.6 4.8 0.00 0.00 0.00 88 1011.9
20260508132058 15 35 0.0 3.2 0.00 0.00 0.00 88 1011.9
20260508131510 15 35 0.0 3.2 0.00 0.00 0.00 88 1011.8